User: anonymous   Login
Location: Newark
(26.0814°N, 97.8289°W)
Time: 19:50:57
(UTC+00:00)
Language:

LightSail 2 - Orbit

View from above orbital plane
View from above orbital plane
View from above satellite
View from above satellite

Ground track
Ground track

The orbit data is extracted from the following two-line orbital elements,

1 44420U 19036AC  20047.66125423  .00004931  00000-0  10867-2 0  9996
2 44420  24.0096 156.7090 0014439 267.1932  92.6914 14.54448980 32559
Epoch (UTC): 16 February 2020 15:52:12
Eccentricity: 0.0014439
inclination: 24.0096°
perigee height: 701 km
apogee height: 721 km
right ascension of ascending node: 156.7090°
argument of perigee: 267.1932°
revolutions per day: 14.54448980
mean anomaly at epoch: 92.6914°
orbit number at epoch: 3255

The dashed part of the orbit path shows where the satellite is in the earth's shadow,  

DLR